Temp
6 6 6 6 6 6 6 6 6 6 6 6 6 6 6 6 6 6 6 6 7 7 6 6 6 6 7 12 14 17 15 13 16 16 18 20 20 21 22 23 23 22 24 25 24 25 25
6 6 6 6 6 6 6 5 5 5 5 5 5 6 6 6 6 6 6 6 7 7 7 6 6 6 8 9 14 13 13 13 15 16 19 19 21 22 22 23 22 24 23 24 24 24 24
6 6 6 6 5 5 5 5 5 5 5 5 5 5 5 5 5 5 5 6 7 8 7 6 6 7 8 11 13 14 13 14 14 15 18 19 20 21 22 21 23 23 22 23 23 23 23
6 5 5 5 5 5 5 5 5 5 5 5 5 5 5 5 6 6 6 7 8 8 8 8 7 7 10 11 12 12 13 13 13 13 14 17 17 20 21 23 21 21 22 22 24 24 24
6 5 5 5 5 5 5 5 5 5 5 5 5 5 5 5 5 5 6 7 9 8 8 8 8 8 11 12 12 13 14 14 15 14 14 16 18 19 20 20 21 21 22 22 23 24 24
5 5 5 5 5 5 5 5 5 4 4 4 4 4 4 4 5 6 6 7 8 8 9 9 9 8 12 15 14 13 14 13 15 15 15 15 18 19 20 20 20 21 21 22 23 25 23
5 5 5 5 5 5 5 5 5 4 4 4 4 4 4 4 5 5 6 9 11 12 8 9 12 12 13 14 14 15 15 15 15 16 17 17 16 18 20 20 21 21 22 22 24 23 22
4 4 4 4 4 4 4 4 4 4 4 4 4 4 4 4 5 6 7 9 7 5 5 9 10 10 10 11 11 15 15 15 16 16 17 16 17 20 21 20 19 20 21 21 22 22 21
4 4 4 4 4 4 4 4 4 4 4 4 4 4 4 5 5 6 7 7 6 6 6 10 12 12 13 12 11 12 16 16 17 17 17 17 20 20 20 19 18 20 20 21 20 21 22
4 4 3 3 4 4 4 4 4 4 4 3 3 3 3 4 6 6 8 6 6 5 7 12 13 13 13 13 12 14 15 17 17 17 17 17 19 18 18 18 19 19 21 20 20 19 20
4 3 3 3 4 3 3 3 3 3 3 3 3 3 3 4 5 7 7 5 6 5 9 14 14 13 13 12 14 16 14 16 17 17 16 16 17 17 17 18 19 19 19 19 19 20 20
3 3 4 3 3 3 3 3 3 3 3 3 3 3 3 5 5 6 5 5 6 8 10 13 14 13 14 13 13 16 14 17 18 17 17 17 17 18 18 18 18 19 18 18 19 19 18
3 3 4 3 3 3 3 3 3 3 3 4 4 4 4 4 6 4 4 8 9 9 14 13 11 13 13 12 15 14 14 14 16 15 15 16 16 16 17 16 17 18 18 17 16 15 19
3 3 3 3 3 3 3 3 3 3 4 4 4 5 4 4 4 3 6 9 7 11 11 12 12 13 11 10 14 15 14 15 17 18 17 16 14 15 16 18 17 17 18 19 19 19 21
3 3 3 3 3 3 3 3 3 3 4 4 4 5 5 5 3 4 8 7 9 10 9 9 10 11 9 10 10 15 15 16 17 18 16 16 15 16 17 17 18 17 16 18 16 17 17
3 3 3 3 3 3 3 3 3 3 4 4 5 5 6 3 3 6 7 6 8 9 9 9 7 9 7 10 9 15 16 17 16 17 18 17 14 16 16 17 16 17 18 15 16 16 17
3 3 3 3 3 3 3 3 3 4 4 4 5 8 5 3 4 8 7 8 8 9 9 7 7 7 7 8 8 10 15 16 17 16 17 17 17 14 16 16 17 16 16 16 17 16 17
3 3 3 3 3 3 3 3 3 4 4 4 6 6 4 4 7 7 7 7 7 9 10 9 9 8 6 7 7 9 13 15 15 17 16 16 17 15 16 16 18 17 17 17 17 14 16
3 2 3 3 3 3 3 3 3 4 4 4 6 7 5 4 6 7 8 8 8 8 8 8 8 7 7 7 8 10 12 14 15 16 15 16 16 14 14 15 17 16 17 15 12 14 15
2 2 2 2 3 2 3 3 3 3 4 4 5 5 7 6 5 6 6 7 8 9 9 8 7 6 7 8 8 9 10 12 13 14 12 15 15 17 17 16 16 15 16 16 16 15 16
2 2 2 2 2 2 2 3 3 3 3 4 4 5 5 5 7 6 7 8 8 6 7 6 7 8 7 8 8 8 8 10 11 12 12 14 14 15 15 15 16 16 16 16 16 16 15
3 2 2 2 2 2 2 2 3 3 3 5 5 6 6 6 6 6 6 7 7 5 5 7 8 9 10 9 8 8 8 9 10 12 12 12 13 15 14 15 15 15 16 16 16 16 17
2 2 2 2 2 2 2 2 3 3 3 5 3 4 6 5 8 8 7 6 6 7 9 10 9 10 10 8 8 9 10 10 11 12 13 14 14 14 13 14 14 14 15 15 16 17 17
2 2 2 2 2 2 2 2 3 3 4 4 5 6 6 6 7 7 7 7 7 8 8 9 9 9 10 9 11 12 12 12 12 13 13 14 14 14 13 13 13 14 16 16 16 15 14
2 2 2 2 2 2 2 2 3 3 3 4 4 5 7 6 7 7 7 7 8 9 9 8 9 9 9 10 12 13 13 13 13 13 13 14 14 13 13 14 14 14 13 13 13 14 11
2 2 2 2 2 2 2 2 3 3 3 2 2 4 5 6 8 7 7 7 8 8 9 9 10 9 10 10 11 11 11 12 13 13 13 13 13 14 13 12 12 12 13 14 14 13 10
1 2 2 2 2 2 2 2 2 3 3 2 2 2 2 5 8 6 8 7 8 8 8 9 8 9 10 10 11 11 11 12 12 12 12 12 12 12 12 12 13 11 13 14 13 9 7
2 1 1 2 2 2 2 2 2 3 3 3 2 2 2 4 7 6 7 7 8 8 7 8 9 9 8 9 9 9 10 11 12 11 11 12 12 12 12 11 11 7 13 11 7 5 5
2 1 1 2 2 1 2 2 2 2 3 3 2 2 2 2 6 4 5 5 6 7 7 8 7 7 8 7 7 7 9 9 9 11 12 9 8 9 8 7 5 4 4 3 3 3 3
Height
835 835 835 836 836 836 837 833 835 835 832 828 827 824 823 820 819 817 813 809 804 802 797 794 794 793 790 780 764 758 757 758 758 758 757 754 750 752 747 741 742 744 737 734 739 740 739
833 833 834 834 834 836 836 833 835 834 831 828 826 824 822 819 816 815 810 806 801 797 792 789 789 790 789 778 758 755 755 755 755 754 751 752 747 744 743 739 740 732 736 733 735 736 735
831 831 833 832 833 834 833 834 834 832 829 825 827 822 820 817 814 810 806 801 795 789 785 781 781 783 780 758 756 754 754 754 753 753 749 747 747 744 740 744 735 736 741 736 733 734 734
829 829 830 832 832 831 832 834 832 829 827 827 825 822 818 814 810 805 802 797 789 783 779 776 775 777 763 753 753 750 749 746 747 748 751 750 750 743 738 734 736 738 735 735 723 726 726
827 827 829 829 831 829 831 832 829 826 827 826 822 820 815 812 807 801 797 791 783 778 776 773 774 774 753 749 747 745 744 742 740 740 747 749 747 742 738 740 736 730 726 727 723 719 719
825 826 826 827 828 829 830 828 826 826 826 823 818 816 814 810 804 799 794 786 778 776 774 772 771 772 749 739 743 742 739 739 738 736 745 746 740 736 733 730 728 725 730 722 720 711 716
822 823 824 824 826 829 827 826 827 827 824 820 816 814 811 808 802 799 794 783 780 771 776 770 758 750 741 739 741 735 736 734 734 731 726 729 736 721 718 721 723 721 719 716 707 710 722
820 822 822 823 824 825 826 827 826 825 821 818 815 812 811 806 802 799 796 790 794 798 776 764 753 748 743 747 738 724 732 733 724 719 721 729 717 712 714 719 728 727 723 719 713 716 721
818 819 822 821 821 823 826 825 824 822 818 816 813 811 810 804 800 799 797 794 794 793 781 741 736 735 732 734 731 719 721 718 715 711 713 710 701 705 713 722 728 721 721 720 722 716 713
815 816 819 818 821 822 822 821 821 819 816 815 812 810 807 802 802 800 794 794 792 791 776 730 726 726 726 727 721 715 714 710 708 704 711 710 702 708 718 720 721 720 713 720 723 725 718
813 816 818 818 820 819 818 820 819 816 813 812 811 809 805 801 802 798 797 792 790 790 752 718 718 724 724 726 714 698 708 708 700 699 708 705 708 711 714 712 713 715 717 720 720 718 715
811 814 816 817 817 817 817 819 816 814 810 812 810 807 804 802 800 798 794 790 787 771 742 720 715 716 712 716 711 699 706 702 695 697 700 704 705 707 709 712 713 714 718 722 721 719 721
811 813 814 815 814 814 817 815 815 813 808 810 807 804 802 800 798 795 792 786 768 756 721 720 727 719 712 706 690 696 701 699 692 699 702 702 707 708 709 717 715 713 716 726 734 738 707
810 811 812 813 814 813 814 812 812 811 808 808 805 802 801 800 797 793 791 777 772 736 736 733 730 714 710 719 688 687 690 692 684 684 691 699 715 708 709 705 709 711 710 702 707 702 689
808 809 809 812 812 813 810 810 811 808 807 806 802 802 801 799 794 793 786 776 757 753 754 749 735 718 724 717 707 679 684 683 684 684 689 695 704 703 704 704 703 714 719 709 719 714 710
805 805 809 810 811 810 809 808 809 807 806 804 802 801 800 797 795 793 784 782 768 763 760 755 758 740 742 715 711 676 677 679 684 686 681 685 707 702 708 705 710 706 707 722 716 714 709
801 804 806 807 808 809 807 807 806 806 804 802 801 795 801 799 797 788 784 775 770 765 762 765 758 755 742 732 722 705 676 681 682 686 684 684 687 711 706 703 703 713 713 714 709 716 707
799 803 804 805 806 806 806 805 805 805 804 802 801 795 801 799 791 790 783 782 775 764 759 753 751 748 746 735 727 711 687 681 689 682 687 688 686 701 700 702 696 701 705 707 706 723 715
799 799 801 802 802 804 804 804 804 805 804 802 799 797 801 800 789 784 780 773 770 765 760 756 749 746 739 734 721 701 695 694 687 686 690 688 690 701 712 709 704 705 706 713 727 724 717
794 797 799 799 800 801 802 803 803 804 803 803 803 798 797 798 800 793 787 778 770 762 757 757 755 749 737 721 716 712 707 704 698 695 698 690 692 686 686 692 697 711 710 709 712 716 709
792 794 795 797 798 799 800 802 802 802 802 804 805 803 804 797 790 793 786 777 774 777 770 767 755 746 741 726 722 720 723 718 714 708 705 701 702 699 700 702 704 707 710 711 711 712 717
790 792 792 794 796 797 800 800 801 801 802 804 804 799 801 796 794 792 789 780 778 784 782 767 758 745 737 735 743 737 735 728 726 719 718 716 713 703 708 706 707 712 711 710 710 708 706
787 788 790 792 794 796 797 798 800 800 802 802 805 805 800 798 788 785 788 789 785 778 767 762 759 747 736 743 741 738 738 735 728 721 711 711 711 706 713 712 711 713 713 712 709 706 707
783 785 787 789 791 793 795 796 798 799 801 802 802 802 799 792 788 787 789 786 781 778 776 764 760 755 747 746 734 727 729 727 722 718 718 714 711 711 716 715 716 721 715 715 713 716 724
779 782 784 786 789 791 793 795 796 797 799 802 802 802 797 794 790 787 787 784 779 774 770 768 764 762 757 742 729 721 720 719 721 722 719 718 716 719 717 712 717 718 728 728 725 724 741
775 778 781 783 786 789 791 793 794 796 798 800 801 804 802 795 786 792 788 785 780 776 769 769 766 764 757 746 737 731 728 725 722 723 725 724 721 717 718 719 722 731 729 726 725 721 748
771 774 778 780 783 786 789 791 792 794 797 798 799 803 805 799 789 793 785 785 784 781 775 772 773 764 760 749 737 738 732 733 729 726 729 726 726 723 727 723 723 740 730 725 720 752 760
767 770 773 777 780 783 786 788 790 792 794 795 797 800 803 800 791 793 791 788 784 784 782 776 770 770 768 758 755 754 746 741 734 737 738 730 728 730 728 731 734 762 735 739 766 772 771
763 766 769 773 776 780 783 785 787 789 791 792 794 797 800 802 793 794 791 789 789 788 789 782 781 780 778 773 774 769 759 756 755 739 741 749 758 751 761 767 781 780 779 781 778 780 779
Wind_Speed
7 6 5 4 4 5 5 7 8 9 10 11 12 12 13 14 17 20 22 24 27 28 27 24 22 19 12 9 12 13 17 15 9 7 11 12 16 20 23 17 20 23 21 16 16 20 20
7 6 5 4 4 4 5 7 7 8 11 12 13 12 13 16 17 20 22 25 30 32 31 28 23 16 13 19 12 10 7 7 5 10 12 16 12 17 12 20 19 8 22 21 19 17 18
7 6 6 5 3 4 5 6 6 8 11 12 12 13 14 16 19 22 25 29 32 33 33 28 21 14 16 24 11 9 14 15 11 9 11 14 20 11 10 14 19 18 19 17 16 14 13
8 7 5 3 3 5 6 5 7 10 11 11 13 14 17 20 23 25 28 29 31 28 22 13 7 10 10 9 16 23 21 21 22 23 19 13 7 15 15 13 7 17 18 19 18 20 22
8 6 5 4 3 5 5 6 8 9 11 12 14 16 18 21 24 27 30 29 28 16 4 3 4 6 11 4 8 10 12 13 8 18 18 11 9 14 13 15 14 13 15 17 14 12 13
8 5 3 2 3 4 4 6 8 8 9 11 13 16 19 21 24 26 28 28 13 5 4 5 2 6 8 5 8 15 10 10 9 9 12 11 9 13 16 16 19 15 15 18 15 13 16
7 6 6 5 3 3 5 6 7 8 10 13 15 16 18 21 22 26 22 14 6 4 9 10 17 20 24 31 27 23 8 4 10 13 17 20 15 23 24 21 16 16 16 17 10 4 12
7 6 4 3 2 4 4 5 7 9 11 13 14 16 17 19 21 13 15 6 7 6 13 17 26 28 37 32 17 23 19 10 15 15 18 12 24 22 19 18 20 18 16 15 12 11 14
8 6 4 3 3 2 2 4 7 9 11 13 14 15 16 19 16 9 11 5 10 14 7 12 10 12 9 10 18 27 15 19 16 17 22 17 10 22 16 16 19 20 19 14 13 11 16
8 6 3 4 2 0 3 5 7 9 11 12 13 15 16 21 5 14 6 12 14 9 5 7 3 1 3 5 8 22 24 16 13 19 17 13 8 10 18 22 19 18 16 14 12 8 7
8 5 5 3 0 1 4 5 7 8 10 12 14 14 15 14 11 9 12 16 16 5 6 6 4 4 6 7 17 3 29 22 18 13 10 10 14 14 16 19 17 14 6 11 10 10 10
7 7 5 3 1 2 2 4 7 9 11 13 15 15 16 10 11 10 15 19 6 6 10 5 6 12 16 12 21 11 15 16 13 11 15 8 4 10 8 8 16 9 9 6 4 5 7
9 6 5 3 1 1 3 5 8 10 11 13 15 17 14 9 8 16 16 9 6 8 7 4 14 20 23 20 14 12 17 20 15 17 15 10 10 6 13 13 9 11 12 5 5 4 5
8 6 3 3 1 1 4 5 7 10 12 14 15 15 7 4 11 11 7 5 6 8 13 19 18 24 10 18 12 12 14 20 20 12 13 11 7 12 10 11 9 14 13 4 7 5 4
9 5 5 3 2 2 3 5 7 9 11 13 14 7 5 13 8 3 4 3 7 14 14 17 24 13 11 19 9 9 14 21 18 13 6 11 6 8 12 6 9 10 8 1 2 1 3
9 5 5 4 3 2 3 5 7 9 11 10 8 4 8 12 4 3 2 5 7 14 16 14 10 8 19 23 11 7 14 16 14 13 5 7 6 11 9 12 4 5 9 4 4 5 5
8 8 4 4 3 2 3 4 7 8 7 6 3 2 6 6 7 3 5 7 15 14 14 4 7 12 10 15 12 6 7 10 7 10 2 10 6 8 11 9 13 6 5 2 0 2 2
10 8 7 5 3 2 2 5 5 5 5 3 2 1 6 7 1 2 6 11 15 11 10 8 8 11 13 15 7 8 7 5 0 11 10 1 7 11 9 4 4 3 5 4 3 5 2
11 9 8 7 3 3 1 4 4 2 5 1 2 2 1 4 4 7 10 9 6 12 12 7 6 9 15 5 5 3 4 11 5 5 3 5 7 8 8 6 7 6 6 6 4 2 3
12 11 8 8 4 3 1 2 2 2 1 1 1 1 1 1 2 7 10 10 15 13 11 11 9 10 14 3 4 6 6 14 14 11 13 2 3 4 6 8 9 8 8 6 3 3 1
12 12 9 7 4 3 3 3 2 2 4 2 2 2 2 2 1 8 8 10 15 13 8 7 3 14 13 8 11 9 12 8 17 16 10 6 8 11 11 10 8 8 7 5 2 5 4
14 12 10 8 3 4 5 3 2 4 8 1 2 1 3 3 5 5 4 7 13 12 5 12 16 19 12 13 12 13 13 9 6 1 4 5 2 7 9 7 5 3 1 4 3 4 6
14 13 10 9 9 6 5 4 2 9 10 2 2 1 3 1 3 4 3 7 9 14 5 11 16 14 13 17 19 14 10 9 6 7 7 2 3 2 4 1 1 3 7 6 2 5 7
15 14 11 11 9 7 5 6 4 10 12 3 3 1 2 1 3 5 9 10 10 11 11 15 13 12 12 21 16 5 4 1 3 7 3 2 4 2 3 2 3 6 6 6 4 11 16
15 13 12 11 9 8 7 7 5 8 18 5 5 2 2 3 4 3 8 8 9 8 6 9 11 12 15 12 5 2 3 2 5 13 5 4 2 3 1 4 6 8 8 9 8 7 16
14 14 14 12 11 10 8 9 6 7 12 14 9 3 2 4 1 3 7 6 5 8 6 5 11 10 11 3 3 5 4 4 3 3 6 4 4 2 0 2 3 7 11 10 8 2 15
15 15 14 12 12 11 10 9 8 8 8 17 6 12 2 3 1 3 4 5 3 4 4 4 11 8 11 6 4 4 4 4 2 3 5 3 3 4 2 3 5 11 15 14 4 6 10
15 14 16 14 11 12 14 8 10 9 7 18 8 18 7 3 6 6 7 8 5 4 4 9 4 5 5 4 4 4 4 5 3 6 4 4 3 2 1 1 2 16 7 6 5 9 9
15 16 16 16 14 13 14 11 12 10 9 12 6 19 15 3 5 4 10 16 16 11 6 2 5 3 4 3 3 3 2 3 4 2 7 2 5 4 5 3 5 7 10 9 11 8 9
Wind_Direction
130 126 114 114 79 57 38 40 19 2 2 2 354 348 340 337 332 329 326 324 323 319 315 309 307 313 320 245 251 269 279 301 298 222 226 220 211 214 225 232 229 230 247 218 244 244 255
137 131 130 114 87 59 27 18 357 354 359 1 355 347 338 333 329 324 321 319 321 318 314 303 297 290 264 256 271 270 272 289 252 237 228 226 228 219 255 237 230 224 234 246 235 242 254
141 125 136 116 85 29 11 356 350 356 356 356 342 340 334 329 327 326 322 320 318 320 317 300 287 254 243 244 264 265 275 272 260 248 246 231 229 230 226 251 238 249 250 245 235 231 234
134 127 121 106 59 47 37 8 354 356 352 344 341 339 336 329 328 327 325 323 318 319 313 308 271 198 253 264 269 266 270 263 250 246 245 243 257 249 240 238 235 225 235 248 236 230 240
143 132 127 94 65 34 359 347 351 357 346 341 342 338 337 332 331 328 326 324 315 314 310 25 147 201 271 268 248 269 265 251 238 224 225 232 222 222 206 231 230 216 237 220 246 214 224
150 141 118 111 51 32 9 3 348 348 341 338 342 339 335 331 330 333 329 326 313 303 313 261 256 224 246 231 312 309 292 247 245 175 190 204 213 211 219 214 225 222 222 244 240 219 217
146 129 121 101 81 16 13 1 337 339 337 339 341 338 337 332 330 331 337 336 357 227 351 272 279 269 276 278 284 272 227 285 217 192 193 189 200 212 213 220 235 262 260 253 249 228 257
147 148 116 113 80 32 8 341 339 338 344 346 345 343 336 332 330 331 344 21 43 311 296 261 260 261 266 277 278 262 241 253 203 204 201 169 219 217 221 214 228 235 245 247 261 268 269
157 132 135 112 72 35 340 348 343 341 344 343 343 340 340 336 331 339 339 11 340 333 273 302 257 258 276 226 242 259 229 216 227 206 192 198 219 219 212 213 219 227 239 248 256 284 273
160 153 140 117 128 337 346 350 339 343 344 338 341 341 341 345 304 334 336 328 326 320 286 277 213 139 342 261 253 237 243 215 216 211 196 223 170 191 198 214 210 227 222 251 250 259 255
167 161 154 150 168 357 4 352 352 352 346 342 335 336 339 341 313 315 317 319 319 201 288 63 134 129 352 257 312 124 213 216 221 191 189 186 187 190 195 214 205 236 177 226 232 244 277
162 161 178 173 23 10 2 348 351 346 345 335 333 337 335 327 303 299 313 314 277 235 255 299 310 318 322 304 273 272 194 229 227 188 204 134 181 180 176 168 186 147 154 169 215 242 250
168 175 181 187 156 14 328 344 341 341 345 332 331 336 330 317 316 319 314 296 243 240 339 340 334 320 310 292 276 191 187 195 185 185 180 168 158 130 159 129 157 179 171 169 190 201 245
197 187 192 194 235 330 333 339 335 339 338 328 333 337 347 350 321 320 302 266 265 326 329 335 326 313 340 347 252 191 192 187 210 201 168 171 173 161 177 183 181 189 192 235 227 196 159
181 195 202 203 252 298 348 348 335 342 334 328 339 343 10 340 331 306 278 285 326 334 340 327 324 338 337 318 305 175 192 186 197 204 183 180 123 162 179 169 166 171 215 270 262 186 260
182 192 215 215 257 285 352 347 336 336 325 331 339 325 21 353 8 294 313 317 301 322 316 320 317 338 322 321 325 167 169 186 183 208 236 167 124 183 144 145 96 231 139 172 200 208 224
185 190 207 214 223 298 349 347 343 335 333 339 338 262 19 347 327 282 340 328 318 322 314 305 313 306 294 307 332 284 144 153 184 169 194 163 163 156 158 204 168 156 170 203 64 301 281
195 213 211 212 218 262 342 358 347 351 354 4 326 39 356 346 343 3 332 335 319 317 324 305 269 280 271 293 286 256 112 55 191 181 161 161 149 151 150 107 153 161 162 192 247 179 158
210 207 205 206 208 254 328 351 352 358 7 348 15 9 356 325 15 354 343 338 309 308 333 310 278 289 289 282 276 73 59 41 97 128 131 157 156 140 140 132 167 180 151 93 82 333 227
196 207 222 192 211 221 243 315 348 301 308 72 58 92 105 106 73 326 351 360 358 337 313 328 301 297 318 295 39 41 56 49 31 50 31 59 118 249 171 135 141 149 160 160 161 182 300
201 204 206 205 214 232 248 266 312 281 185 147 11 81 53 352 71 336 336 344 359 358 340 318 284 354 346 348 12 20 26 40 27 22 21 27 89 93 88 101 115 138 153 166 228 253 259
206 215 194 186 244 230 243 241 288 197 172 175 133 221 171 279 296 318 350 348 355 347 305 338 354 340 339 15 3 343 347 14 58 183 106 321 62 111 79 110 120 138 170 279 244 263 293
201 213 202 222 215 216 234 225 226 189 170 157 133 173 285 301 322 323 25 331 318 326 310 338 342 336 352 346 326 306 289 284 296 347 26 102 177 138 101 40 325 142 108 29 34 2 350
207 201 203 207 200 227 237 225 218 200 192 166 155 176 262 316 317 349 320 315 316 326 309 318 343 348 337 322 306 244 224 257 341 16 1 98 88 30 105 202 120 76 29 72 1 52 19
207 207 214 201 212 215 227 225 221 206 206 203 168 213 253 299 310 331 348 338 314 317 328 320 346 331 320 316 335 360 89 79 34 34 57 11 18 89 96 61 113 117 39 12 3 57 27
207 217 210 198 214 208 238 225 218 203 213 205 194 211 259 302 88 328 325 339 345 344 341 359 337 334 338 313 337 6 39 340 47 91 37 24 10 9 161 85 111 50 350 332 307 165 15
210 217 204 206 214 208 231 225 227 211 203 208 200 189 132 272 282 250 334 343 337 334 306 321 347 342 351 351 18 14 45 327 18 33 31 46 36 34 43 46 99 360 344 323 244 26 14
216 219 207 205 220 206 227 231 228 223 218 202 204 201 190 243 278 239 263 278 284 284 313 340 304 24 353 20 354 19 349 24 311 49 359 19 327 77 17 320 117 352 345 19 357 39 35
219 228 197 209 225 210 224 240 232 230 228 213 179 208 201 208 324 285 272 266 261 280 292 293 335 2 19 332 26 288 316 359 337 65 23 65 8 0 26 55 50 24 57 44 52 64 35